����,���ϕ���(m/s),���ϕ���,�ő�u�ԕ���(m/s),�ő啗��������,�C��(��),���x(%),10���Ԉړ��ώZ�J��(mm),1���Ԉړ��ώZ�J��(mm),���J��(mm),�݌v�J��(mm)
2023-05-08T00:00:00+09:00,5.4,�k��,11.5,�k��,12.6,89.5,1.5,10.5,101,103
2023-05-08T00:01:00+09:00,5.1,�k��,9.7,�k�k��,12.6,89.4,2,11,0.5,103.5
2023-05-08T00:02:00+09:00,5.1,�k��,9.7,�k�k��,12.5,89.2,1.5,11,0.5,103.5
2023-05-08T00:03:00+09:00,5.1,�k��,9.7,�k�k��,12.6,89.6,1.5,10.5,0.5,103.5
2023-05-08T00:04:00+09:00,5.2,�k��,9.7,�k�k��,12.6,89.6,1.5,10,0.5,103.5
2023-05-08T00:05:00+09:00,5,�k��,9.2,�k�k��,12.6,89.6,1,10,0.5,103.5
2023-05-08T00:06:00+09:00,4.9,�k��,9.2,�k�k��,12.6,89.5,1.5,10,1,104
2023-05-08T00:07:00+09:00,5.2,�k��,9.9,���k��,12.5,89.5,1.5,10,1,104
2023-05-08T00:08:00+09:00,5.3,�k��,9.9,���k��,12.6,89.5,1,9.5,1,104
2023-05-08T00:09:00+09:00,5.2,�k��,9.9,���k��,12.6,89.2,1.5,10,1.5,104.5
2023-05-08T00:10:00+09:00,5.1,�k��,9.9,���k��,12.6,89.1,1.5,9.5,1.5,104.5
2023-05-08T00:11:00+09:00,5.1,�k��,9.9,���k��,12.5,89.3,1,9.5,1.5,104.5
2023-05-08T00:12:00+09:00,4.9,�k�k��,9.9,���k��,12.4,89.7,1,9,1.5,104.5
2023-05-08T00:13:00+09:00,4.8,�k�k��,9.9,���k��,12.4,90.1,1,9,1.5,104.5
2023-05-08T00:14:00+09:00,4.8,�k�k��,9.9,���k��,12.4,90.6,1.5,9.5,2,105
2023-05-08T00:15:00+09:00,4.9,�k�k��,9.9,���k��,12.5,90.8,1.5,9.5,2,105
2023-05-08T00:16:00+09:00,5,�k�k��,9.9,���k��,12.5,90.8,1,9,2,105
2023-05-08T00:17:00+09:00,4.8,�k�k��,9,�k,12.5,90.4,1,9,2,105
2023-05-08T00:18:00+09:00,4.7,�k�k��,9,�k,12.4,90.2,1.5,9.5,2.5,105.5
2023-05-08T00:19:00+09:00,4.8,�k�k��,9,�k,12.5,90.4,1,9,2.5,105.5
2023-05-08T00:20:00+09:00,4.7,�k�k��,7.4,�k��,12.6,90.5,1,9,2.5,105.5
2023-05-08T00:21:00+09:00,4.8,�k��,7.4,�k��,12.7,90.1,1,8.5,2.5,105.5
2023-05-08T00:22:00+09:00,5.1,�k��,9.3,��,12.7,89.4,1,8.5,2.5,105.5
2023-05-08T00:23:00+09:00,5.2,�k��,9.3,��,12.7,88.9,1,8.5,2.5,105.5
2023-05-08T00:24:00+09:00,5.1,�k��,9.3,��,12.6,88.3,1,8.5,3,106
2023-05-08T00:25:00+09:00,5,�k��,9.3,��,12.5,88.4,1,8.5,3,106
2023-05-08T00:26:00+09:00,4.8,�k��,9.3,��,12.5,88.9,1,8.5,3,106
2023-05-08T00:27:00+09:00,4.7,�k��,9.3,��,12.4,89.4,1,8.5,3,106
2023-05-08T00:28:00+09:00,4.6,�k��,9.3,��,12.4,89.9,0.5,8,3,106
2023-05-08T00:29:00+09:00,4.4,�k��,9.3,��,12.4,90.3,1,8.5,3.5,106.5
2023-05-08T00:30:00+09:00,4.1,�k�k��,9.3,��,12.3,90.7,1,8.5,3.5,106.5
2023-05-08T00:31:00+09:00,3.8,�k�k��,9.3,��,12.3,91.3,1,8,3.5,106.5
2023-05-08T00:32:00+09:00,3.5,�k�k��,9.2,���k��,12.2,91.8,1,8,3.5,106.5
2023-05-08T00:33:00+09:00,3.2,�k�k��,7.9,�k�k��,12.2,92.3,1,8,3.5,106.5
2023-05-08T00:34:00+09:00,3,�k,7.9,�k�k��,12.1,92.7,1,8,4,107
2023-05-08T00:35:00+09:00,2.8,�k,7.9,�k�k��,12.1,93.1,1,8,4,107
2023-05-08T00:36:00+09:00,2.8,�k,7.9,�k�k��,12.1,93.5,1,8,4,107
2023-05-08T00:37:00+09:00,2.7,�k,6.5,�k,12.1,93.8,1,7.5,4,107
2023-05-08T00:38:00+09:00,2.9,�k�k��,6.5,�k,12,93.8,1,7.5,4,107
2023-05-08T00:39:00+09:00,3.1,�k�k��,7.1,�k,12.1,94.1,1,8,4.5,107.5
2023-05-08T00:40:00+09:00,3.5,�k�k��,9,��,12.1,94.4,1,7.5,4.5,107.5
2023-05-08T00:41:00+09:00,3.9,�k�k��,10.3,���k��,12.3,94.7,1,7.5,4.5,107.5
2023-05-08T00:42:00+09:00,4.1,�k�k��,10.3,���k��,12.4,94.3,1,7,4.5,107.5
2023-05-08T00:43:00+09:00,4.3,�k��,10.3,���k��,12.5,93.3,1,7,4.5,107.5
2023-05-08T00:44:00+09:00,4.7,�k��,10.3,���k��,12.4,92.1,0.5,7,4.5,107.5
2023-05-08T00:45:00+09:00,4.9,�k��,12.2,�k�k��,12.4,91.4,0.5,6.5,4.5,107.5
2023-05-08T00:46:00+09:00,4.9,�k��,12.2,�k�k��,12.5,91.2,0.5,6.5,4.5,107.5
2023-05-08T00:47:00+09:00,5,�k��,12.2,�k�k��,12.5,90.7,1,7,5,108
2023-05-08T00:48:00+09:00,5.2,�k��,12.2,�k�k��,12.4,90.3,1,6.5,5,108
2023-05-08T00:49:00+09:00,5.2,�k��,12.2,�k�k��,12.3,90.4,0.5,6.5,5,108
2023-05-08T00:50:00+09:00,5.2,�k��,12.2,�k�k��,12.3,90.5,0.5,6.5,5,108
2023-05-08T00:51:00+09:00,5,�k�k��,12.2,�k�k��,12.3,90.8,0.5,6.5,5,108
2023-05-08T00:52:00+09:00,5,�k�k��,12.2,�k�k��,12.3,90.8,0.5,6,5,108
2023-05-08T00:53:00+09:00,5,�k�k��,12.2,�k�k��,12.2,90.8,1,6.5,5.5,108.5
2023-05-08T00:54:00+09:00,4.9,�k�k��,12.2,�k�k��,12.3,91.2,1,6.5,5.5,108.5
2023-05-08T00:55:00+09:00,4.8,�k�k��,8.3,�k,12.2,91.4,1,6,5.5,108.5
2023-05-08T00:56:00+09:00,5,�k�k��,8.3,�k,12.2,91.4,1,6,5.5,108.5
2023-05-08T00:57:00+09:00,4.9,�k�k��,8.3,�k,12.3,91.5,0.5,6,5.5,108.5
2023-05-08T00:58:00+09:00,4.9,�k��,8.3,�k��,12.3,91.4,0.5,5.5,5.5,108.5
2023-05-08T00:59:00+09:00,4.7,�k��,8.3,�k��,12.3,90.9,1,6,6,109
2023-05-08T01:00:00+09:00,4.7,�k��,8.3,�k��,12.2,90.6,1,6,6,109
2023-05-08T01:01:00+09:00,4.6,�k��,8.3,�k��,12.2,90.4,1,5.5,6,109
2023-05-08T01:02:00+09:00,4.6,�k��,8.3,�k��,12.2,90.5,1,5.5,6,109
2023-05-08T01:03:00+09:00,4.4,�k��,8.3,�k��,12.2,90.5,0.5,5.5,6,109
2023-05-08T01:04:00+09:00,4.5,�k��,8.3,�k��,12.2,90.5,0.5,5.5,6,109
2023-05-08T01:05:00+09:00,4.5,�k��,8.3,�k��,12.3,90.5,0.5,5.5,6,109
2023-05-08T01:06:00+09:00,4.4,�k��,8.3,�k��,12.4,90.3,0.5,5,6,109
2023-05-08T01:07:00+09:00,4.5,�k��,8.3,�k��,12.4,89.3,0.5,5,6,109
2023-05-08T01:08:00+09:00,4.9,�k��,12.9,�k��,12.3,88.7,0.5,5,6,109
2023-05-08T01:09:00+09:00,5,���k��,12.9,�k��,12.4,88.4,0,4.5,6,109
2023-05-08T01:10:00+09:00,5,���k��,12.9,�k��,12.5,87.7,0,4.5,6,109
2023-05-08T01:11:00+09:00,5.3,���k��,12.9,�k��,12.4,87.2,0,4.5,6,109
2023-05-08T01:12:00+09:00,5.7,���k��,12.9,�k��,12.4,87,0,4.5,6,109
2023-05-08T01:13:00+09:00,6.2,���k��,12.9,�k��,12.4,86.8,0,4.5,6,109
2023-05-08T01:14:00+09:00,6.3,�k��,12.9,�k��,12.4,86.7,0,4,6,109
2023-05-08T01:15:00+09:00,6.5,�k��,12.9,�k��,12.5,86.8,0,4,6,109
2023-05-08T01:16:00+09:00,6.8,�k��,12.9,�k��,12.4,86.6,0,4,6,109
2023-05-08T01:17:00+09:00,6.7,�k��,12.9,�k��,12.4,86.4,0,4,6,109
2023-05-08T01:18:00+09:00,6.3,�k��,11.2,�k��,12.4,86.6,0,3.5,6,109
2023-05-08T01:19:00+09:00,6.2,�k��,11.2,�k��,12.3,86.7,0,3.5,6,109
2023-05-08T01:20:00+09:00,6.3,�k��,11.2,�k��,12.3,86.8,0,3.5,6,109
2023-05-08T01:21:00+09:00,6.4,�k��,12.8,�k�k��,12.3,87,0,3.5,6,109
2023-05-08T01:22:00+09:00,6.2,�k��,12.8,�k�k��,12.3,87,0,3.5,6,109
2023-05-08T01:23:00+09:00,6,�k��,12.8,�k�k��,12.3,86.8,0,3.5,6,109
2023-05-08T01:24:00+09:00,5.9,�k��,12.8,�k�k��,12.2,86.9,0,3,6,109
2023-05-08T01:25:00+09:00,5.8,�k��,12.8,�k�k��,12.2,87.1,0,3,6,109
2023-05-08T01:26:00+09:00,5.9,�k��,12.8,�k�k��,12.2,87.2,0.5,3.5,6.5,109.5
2023-05-08T01:27:00+09:00,6.2,�k��,12.8,�k�k��,12.2,87.3,0.5,3.5,6.5,109.5
2023-05-08T01:28:00+09:00,6.3,�k��,12.8,�k�k��,12.3,87.3,0.5,3.5,6.5,109.5
2023-05-08T01:29:00+09:00,6.3,�k��,12.8,�k�k��,12.3,87.1,0.5,3,6.5,109.5
2023-05-08T01:30:00+09:00,6.2,�k��,12.8,�k�k��,12.3,86.8,0.5,3,6.5,109.5
2023-05-08T01:31:00+09:00,5.9,�k��,11,�k�k��,12.1,87,0.5,3,6.5,109.5
2023-05-08T01:32:00+09:00,5.9,�k�k��,11.6,�k�k��,12.1,87.6,0.5,3,6.5,109.5
2023-05-08T01:33:00+09:00,5.8,�k�k��,11.6,�k�k��,12.2,88.2,0.5,3,6.5,109.5
2023-05-08T01:34:00+09:00,5.6,�k�k��,11.6,�k�k��,12.2,88.1,0.5,2.5,6.5,109.5
2023-05-08T01:35:00+09:00,5.7,�k�k��,11.6,�k�k��,12.1,87.7,0.5,2.5,6.5,109.5
2023-05-08T01:36:00+09:00,5.4,�k�k��,11.6,�k�k��,12.1,87.6,0,2.5,6.5,109.5
2023-05-08T01:37:00+09:00,5.2,�k�k��,11.6,�k�k��,12,87.8,0,2.5,6.5,109.5
2023-05-08T01:38:00+09:00,5.1,�k�k��,11.6,�k�k��,12.1,88.2,0,2.5,6.5,109.5
2023-05-08T01:39:00+09:00,5.1,�k�k��,11.6,�k�k��,12,88.1,0,2,6.5,109.5
2023-05-08T01:40:00+09:00,5.2,�k�k��,11.6,�k�k��,12,88.3,0,2,6.5,109.5
2023-05-08T01:41:00+09:00,5.4,�k�k��,11.6,�k�k��,12,88.4,0,2,6.5,109.5
2023-05-08T01:42:00+09:00,5.4,�k�k��,10.9,�k�k��,12.1,88.7,0,2,6.5,109.5
2023-05-08T01:43:00+09:00,5.7,�k�k��,10.9,�k�k��,12.1,88.8,0,2,6.5,109.5
2023-05-08T01:44:00+09:00,5.9,�k��,10.9,�k�k��,12.1,88.6,0,2,6.5,109.5
2023-05-08T01:45:00+09:00,5.9,�k�k��,10.9,�k�k��,12.1,88.2,0,2,6.5,109.5
2023-05-08T01:46:00+09:00,6,�k��,10.9,�k�k��,12.2,88.1,0,2,6.5,109.5
2023-05-08T01:47:00+09:00,6.1,�k�k��,10.9,�k�k��,12.1,88,0,1.5,6.5,109.5
2023-05-08T01:48:00+09:00,6.3,�k�k��,10.9,�k�k��,12.1,87.9,0,1.5,6.5,109.5
2023-05-08T01:49:00+09:00,6.4,�k��,10.9,�k�k��,12.1,87.8,0,1.5,6.5,109.5
2023-05-08T01:50:00+09:00,6.3,�k��,10.9,�k�k��,12.1,87.8,0,1.5,6.5,109.5
2023-05-08T01:51:00+09:00,6.2,�k��,9.9,���k��,12.1,87.8,0,1.5,6.5,109.5
2023-05-08T01:52:00+09:00,6,�k��,9.9,���k��,12.1,87.6,0,1.5,6.5,109.5
2023-05-08T01:53:00+09:00,5.8,�k��,9.9,���k��,12,87.6,0,1,6.5,109.5
2023-05-08T01:54:00+09:00,5.7,�k��,9.9,���k��,12.1,88,0,1,6.5,109.5
2023-05-08T01:55:00+09:00,5.7,�k��,9.9,���k��,12.1,88.3,0,1,6.5,109.5
2023-05-08T01:56:00+09:00,5.6,�k��,9.9,���k��,12.1,88.3,0,1,6.5,109.5
2023-05-08T01:57:00+09:00,5.4,�k��,9.9,���k��,12.1,88.1,0,1,6.5,109.5
2023-05-08T01:58:00+09:00,5.2,�k��,8.2,���k��,12.1,88,0,1,6.5,109.5
2023-05-08T01:59:00+09:00,5.1,�k��,8.2,���k��,12.1,88.1,0,0.5,6.5,109.5
2023-05-08T02:00:00+09:00,5,�k��,8.2,���k��,12,88.3,0,0.5,6.5,109.5
2023-05-08T02:01:00+09:00,5,�k��,9.9,�k�k��,12.1,88.5,0,0.5,6.5,109.5
2023-05-08T02:02:00+09:00,4.9,�k��,9.9,�k�k��,12,88.5,0,0.5,6.5,109.5
2023-05-08T02:03:00+09:00,4.8,�k��,9.9,�k�k��,11.9,88.5,0.5,1,7,110
2023-05-08T02:04:00+09:00,4.8,�k��,9.9,�k�k��,11.9,88.7,0.5,1,7,110
2023-05-08T02:05:00+09:00,4.7,�k��,9.9,�k�k��,11.9,89.1,0.5,1,7,110
2023-05-08T02:06:00+09:00,4.7,�k��,9.9,�k�k��,11.9,89.4,0.5,1,7,110
2023-05-08T02:07:00+09:00,4.7,�k��,9.9,�k�k��,11.9,89.6,0.5,1,7,110
2023-05-08T02:08:00+09:00,4.7,�k��,9.9,�k�k��,11.9,89.7,0.5,1,7,110
2023-05-08T02:09:00+09:00,4.9,�k��,9.9,�k�k��,11.9,89.4,0.5,1,7,110
2023-05-08T02:10:00+09:00,5,�k��,9.9,�k�k��,11.9,89.2,0.5,1,7,110
2023-05-08T02:11:00+09:00,5,�k��,9.9,�k�k��,11.8,89,0.5,1,7,110
2023-05-08T02:12:00+09:00,5,�k��,9.9,�k�k��,11.8,89.1,0.5,1,7,110
2023-05-08T02:13:00+09:00,5,�k��,9.9,�k�k��,11.8,89.4,0,1,7,110
2023-05-08T02:14:00+09:00,5,�k��,9.9,�k�k��,11.8,89.7,0,1,7,110
2023-05-08T02:15:00+09:00,5.3,�k��,12.6,�k�k��,11.8,89.8,0,1,7,110
2023-05-08T02:16:00+09:00,5.6,�k��,12.6,�k�k��,11.9,89.8,0,1,7,110
2023-05-08T02:17:00+09:00,5.7,�k��,12.6,�k�k��,11.9,89.4,0,1,7,110
2023-05-08T02:18:00+09:00,5.6,�k��,12.6,�k�k��,12,88.9,0,1,7,110
2023-05-08T02:19:00+09:00,5.4,�k��,12.6,�k�k��,12,88.5,0,1,7,110
2023-05-08T02:20:00+09:00,5.4,�k��,12.6,�k�k��,11.9,88.3,0,1,7,110
2023-05-08T02:21:00+09:00,5.5,�k��,12.6,�k�k��,12,88.2,0,1,7,110
2023-05-08T02:22:00+09:00,5.5,�k�k��,12.6,�k�k��,11.9,88,0,1,7,110
2023-05-08T02:23:00+09:00,5.5,�k��,12.6,�k�k��,11.9,88,0,1,7,110
2023-05-08T02:24:00+09:00,5.5,�k��,12.6,�k�k��,12,88,0,1,7,110
2023-05-08T02:25:00+09:00,5.3,�k��,10.2,�k��,12,87.8,0,1,7,110
2023-05-08T02:26:00+09:00,5.3,�k�k��,9.7,�k,12,87.6,0,0.5,7,110
2023-05-08T02:27:00+09:00,5.3,�k�k��,9.7,�k,12,87.4,0,0.5,7,110
2023-05-08T02:28:00+09:00,5.3,�k��,9.7,�k,12,87.4,0,0.5,7,110
2023-05-08T02:29:00+09:00,5.4,�k��,11.3,�k��,12,87.4,0,0.5,7,110
2023-05-08T02:30:00+09:00,5.6,�k��,13,�k��,12,87.4,0,0.5,7,110
2023-05-08T02:31:00+09:00,5.5,�k��,13,�k��,12,87.1,0,0.5,7,110
2023-05-08T02:32:00+09:00,5.7,�k��,13,�k��,12,86.9,0,0.5,7,110
2023-05-08T02:33:00+09:00,5.8,�k��,13,�k��,12,87.1,0,0.5,7,110
2023-05-08T02:34:00+09:00,5.7,�k��,13,�k��,12,87.1,0,0.5,7,110
2023-05-08T02:35:00+09:00,5.6,�k��,13,�k��,12.1,87,0,0.5,7,110
2023-05-08T02:36:00+09:00,5.9,�k��,13.4,�k��,12.1,86.8,0,0.5,7,110
2023-05-08T02:37:00+09:00,6,�k��,13.4,�k��,12.1,86.4,0,0.5,7,110
2023-05-08T02:38:00+09:00,5.9,�k��,13.4,�k��,12.1,86.3,0,0.5,7,110
2023-05-08T02:39:00+09:00,5.7,�k��,13.4,�k��,12,86.2,0,0.5,7,110
2023-05-08T02:40:00+09:00,5.6,�k��,13.4,�k��,11.9,86.6,0,0.5,7,110
2023-05-08T02:41:00+09:00,5.5,�k��,13.4,�k��,11.9,87.3,0,0.5,7,110
2023-05-08T02:42:00+09:00,5.6,�k��,13.4,�k��,11.9,87.5,0,0.5,7,110
2023-05-08T02:43:00+09:00,5.5,�k��,13.4,�k��,11.9,87.7,0,0.5,7,110
2023-05-08T02:44:00+09:00,5.8,�k��,13.4,�k��,11.9,87.9,0,0.5,7,110
2023-05-08T02:45:00+09:00,5.9,�k��,13.4,�k��,11.9,88.2,0,0.5,7,110
2023-05-08T02:46:00+09:00,5.5,�k��,10.3,�k,11.9,88.2,0,0.5,7,110
2023-05-08T02:47:00+09:00,5.4,�k��,10.3,�k,11.8,88.2,0,0.5,7,110
2023-05-08T02:48:00+09:00,5.6,�k�k��,10.3,�k,11.8,88.6,0,0.5,7,110
2023-05-08T02:49:00+09:00,5.7,�k�k��,10.3,�k,11.9,89.1,0,0.5,7,110
2023-05-08T02:50:00+09:00,5.7,�k��,9.4,�k��,11.8,89,0,0.5,7,110
2023-05-08T02:51:00+09:00,5.8,�k��,9.4,�k��,11.8,88.9,0,0.5,7,110
2023-05-08T02:52:00+09:00,5.6,�k��,9.4,�k��,11.7,89.2,0,0.5,7,110
2023-05-08T02:53:00+09:00,5.5,�k��,9.4,�k��,11.8,89.5,0,0.5,7,110
2023-05-08T02:54:00+09:00,5.2,�k��,9,�k��,11.7,89.8,0,0.5,7,110
2023-05-08T02:55:00+09:00,5.1,�k�k��,9.1,�k�k��,11.7,90.1,0,0.5,7,110
2023-05-08T02:56:00+09:00,5.1,�k�k��,9.1,�k�k��,11.7,90.5,0,0.5,7,110
2023-05-08T02:57:00+09:00,5.2,�k�k��,9.1,�k�k��,11.7,90.5,0,0.5,7,110
2023-05-08T02:58:00+09:00,5.2,�k�k��,9.1,�k�k��,11.7,90.6,0,0.5,7,110
2023-05-08T02:59:00+09:00,5.1,�k�k��,9.1,�k�k��,11.6,90.5,0,0.5,7,110
2023-05-08T03:00:00+09:00,5,�k�k��,9.1,�k�k��,11.6,90.6,0,0.5,7,110
2023-05-08T03:01:00+09:00,4.8,�k�k��,9.1,�k�k��,11.5,91.2,0,0.5,7,110
2023-05-08T03:02:00+09:00,4.7,�k�k��,9.1,�k�k��,11.6,91.8,0,0.5,7,110
2023-05-08T03:03:00+09:00,4.7,�k�k��,9.1,�k�k��,11.6,92.3,0,0,7,110
2023-05-08T03:04:00+09:00,4.8,�k�k��,9.1,�k�k��,11.6,92.7,0,0,7,110
2023-05-08T03:05:00+09:00,4.7,�k�k��,7.1,�k��,11.6,92.7,0,0,7,110
2023-05-08T03:06:00+09:00,4.8,�k�k��,8.5,�k,11.6,92.8,0,0,7,110
2023-05-08T03:07:00+09:00,4.6,�k�k��,8.5,�k,11.6,92.9,0,0,7,110
2023-05-08T03:08:00+09:00,4.6,�k�k��,8.5,�k,11.5,92.6,0,0,7,110
2023-05-08T03:09:00+09:00,4.6,�k�k��,8.5,�k,11.5,92.6,0,0,7,110
2023-05-08T03:10:00+09:00,4.7,�k�k��,8.5,�k,11.6,93,0,0,7,110
2023-05-08T03:11:00+09:00,4.8,�k�k��,8.6,�k,11.7,93.1,0,0,7,110
2023-05-08T03:12:00+09:00,4.9,�k�k��,8.6,�k,11.7,93,0,0,7,110
2023-05-08T03:13:00+09:00,5.2,�k�k��,9,�k�k��,11.6,92.7,0,0,7,110
2023-05-08T03:14:00+09:00,5.4,�k�k��,9.1,���k��,11.7,92.6,0,0,7,110
2023-05-08T03:15:00+09:00,5.5,�k�k��,9.6,�k�k��,11.8,92.7,0,0,7,110
2023-05-08T03:16:00+09:00,5.5,�k�k��,9.6,�k�k��,11.7,92.2,0,0,7,110
2023-05-08T03:17:00+09:00,5.5,�k�k��,9.6,�k�k��,11.7,91.8,0,0,7,110
2023-05-08T03:18:00+09:00,5.6,�k�k��,9.8,�k��,11.7,91.6,0,0,7,110
2023-05-08T03:19:00+09:00,5.6,�k�k��,9.8,�k��,11.8,91.4,0,0,7,110
2023-05-08T03:20:00+09:00,5.7,�k�k��,9.8,�k��,11.8,90.8,0,0,7,110
2023-05-08T03:21:00+09:00,5.8,�k�k��,9.8,�k��,11.9,90,0,0,7,110
2023-05-08T03:22:00+09:00,5.8,�k��,9.8,�k��,11.9,89.3,0,0,7,110
2023-05-08T03:23:00+09:00,5.6,�k�k��,9.8,�k��,11.8,89,0,0,7,110
2023-05-08T03:24:00+09:00,5.5,�k�k��,9.8,�k��,11.8,88.8,0,0,7,110
2023-05-08T03:25:00+09:00,5.4,�k�k��,9.8,�k��,11.8,88.8,0,0,7,110
2023-05-08T03:26:00+09:00,5.5,�k��,9.8,�k��,11.9,88.7,0,0,7,110
2023-05-08T03:27:00+09:00,5.6,�k��,10.2,���k��,11.9,88.1,0,0,7,110
2023-05-08T03:28:00+09:00,5.7,�k��,10.2,���k��,11.9,87.4,0,0,7,110
2023-05-08T03:29:00+09:00,5.9,�k��,10.6,�k��,11.8,87.1,0,0,7,110
2023-05-08T03:30:00+09:00,6,�k��,11.6,�k�k��,11.9,87.1,0,0,7,110
2023-05-08T03:31:00+09:00,6.1,�k��,11.6,�k�k��,11.9,86.6,0,0,7,110
2023-05-08T03:32:00+09:00,6,�k��,11.6,�k�k��,11.9,86.3,0,0,7,110
2023-05-08T03:33:00+09:00,6.1,�k��,11.6,�k�k��,11.9,86.1,0,0,7,110
2023-05-08T03:34:00+09:00,6.1,�k��,11.6,�k�k��,11.9,86,0,0,7,110
2023-05-08T03:35:00+09:00,6,�k��,11.6,�k�k��,11.8,86,0,0,7,110
2023-05-08T03:36:00+09:00,5.7,�k��,11.6,�k�k��,11.8,86.3,0,0,7,110
2023-05-08T03:37:00+09:00,5.5,�k��,11.6,�k�k��,11.8,86.7,0,0,7,110
2023-05-08T03:38:00+09:00,5.4,�k��,11.6,�k�k��,11.8,86.9,0,0,7,110
2023-05-08T03:39:00+09:00,5.3,�k��,11.6,�k�k��,11.7,87.1,0,0,7,110
2023-05-08T03:40:00+09:00,5.4,�k�k��,12.5,�k�k��,11.8,87.3,0,0,7,110
2023-05-08T03:41:00+09:00,5.6,�k�k��,12.5,�k�k��,11.8,87.3,0,0,7,110
2023-05-08T03:42:00+09:00,5.7,�k�k��,12.5,�k�k��,11.8,87.2,0,0,7,110
2023-05-08T03:43:00+09:00,5.6,�k��,12.5,�k�k��,11.7,86.9,0,0,7,110
2023-05-08T03:44:00+09:00,5.5,�k�k��,12.5,�k�k��,11.7,87.1,0,0,7,110
2023-05-08T03:45:00+09:00,5.7,�k�k��,12.5,�k�k��,11.6,87.4,0,0,7,110
2023-05-08T03:46:00+09:00,6.1,�k��,12.5,�k�k��,11.6,87.8,0,0,7,110
2023-05-08T03:47:00+09:00,6,�k��,12.5,�k�k��,11.6,88,0,0,7,110
2023-05-08T03:48:00+09:00,6.1,�k�k��,12.5,�k�k��,11.6,88.3,0,0,7,110
2023-05-08T03:49:00+09:00,6.2,�k�k��,12.5,�k�k��,11.6,88.7,0,0,7,110
2023-05-08T03:50:00+09:00,6,�k��,11.8,�k��,11.6,88.9,0,0,7,110
2023-05-08T03:51:00+09:00,5.6,�k�k��,11.1,�k,11.7,88.9,0,0,7,110
2023-05-08T03:52:00+09:00,5.5,�k�k��,11.1,�k,11.6,88.7,0,0,7,110
2023-05-08T03:53:00+09:00,5.4,�k�k��,11.1,�k,11.6,88.7,0,0,7,110
2023-05-08T03:54:00+09:00,5.4,�k�k��,11.1,�k,11.6,88.8,0,0,7,110
2023-05-08T03:55:00+09:00,5.4,�k�k��,11.1,�k,11.6,88.8,0,0,7,110
2023-05-08T03:56:00+09:00,5.2,�k�k��,11.1,�k,11.6,88.7,0,0,7,110
2023-05-08T03:57:00+09:00,5.4,�k�k��,11.1,�k,11.6,88.8,0,0,7,110
2023-05-08T03:58:00+09:00,5.4,�k�k��,11.1,�k,11.6,88.7,0,0,7,110
2023-05-08T03:59:00+09:00,5.1,�k�k��,8.9,�k��,11.6,88.6,0,0,7,110
2023-05-08T04:00:00+09:00,5.2,�k�k��,10.4,�k,11.6,88.8,0,0,7,110
2023-05-08T04:01:00+09:00,5.4,�k�k��,11.8,�k,11.6,89,0,0,7,110
2023-05-08T04:02:00+09:00,5.5,�k�k��,11.8,�k,11.6,89,0,0,7,110
2023-05-08T04:03:00+09:00,5.7,�k�k��,11.8,�k,11.5,89.1,0,0,7,110
2023-05-08T04:04:00+09:00,6,�k�k��,11.9,�k�k��,11.5,89.3,0,0,7,110
2023-05-08T04:05:00+09:00,6.4,�k�k��,12.2,�k��,11.6,89.7,0,0,7,110
2023-05-08T04:06:00+09:00,6.4,�k�k��,12.2,�k��,11.6,89.6,0,0,7,110
2023-05-08T04:07:00+09:00,6.6,�k�k��,14.2,�k�k��,11.6,89.2,0,0,7,110
2023-05-08T04:08:00+09:00,6.9,�k�k��,14.2,�k�k��,11.6,88.8,0,0,7,110
2023-05-08T04:09:00+09:00,7,�k�k��,14.2,�k�k��,11.7,88.6,0,0,7,110
2023-05-08T04:10:00+09:00,6.8,�k��,14.2,�k�k��,11.6,88.4,0,0,7,110
2023-05-08T04:11:00+09:00,6.7,�k��,14.2,�k�k��,11.6,88.4,0,0,7,110
2023-05-08T04:12:00+09:00,6.7,�k��,14.2,�k�k��,11.6,88.2,0,0,7,110
2023-05-08T04:13:00+09:00,6.8,�k��,14.2,�k�k��,11.7,87.9,0,0,7,110
2023-05-08T04:14:00+09:00,6.7,�k��,14.2,�k�k��,11.7,87.5,0,0,7,110
2023-05-08T04:15:00+09:00,6.3,�k��,14.2,�k�k��,11.7,87.2,0,0,7,110
2023-05-08T04:16:00+09:00,6.4,�k��,14.2,�k�k��,11.6,87,0,0,7,110
2023-05-08T04:17:00+09:00,6,�k��,13.3,�k��,11.6,87.1,0,0,7,110
2023-05-08T04:18:00+09:00,5.9,�k��,10.6,�k��,11.7,87.1,0,0,7,110
2023-05-08T04:19:00+09:00,6,�k��,10.6,�k��,11.6,87.1,0,0,7,110
2023-05-08T04:20:00+09:00,6.2,�k��,10.6,�k��,11.6,86.8,0,0,7,110
2023-05-08T04:21:00+09:00,6.3,�k��,10.6,�k��,11.6,86.8,0,0,7,110
2023-05-08T04:22:00+09:00,6.2,�k��,10.6,�k��,11.6,87.1,0,0,7,110
2023-05-08T04:23:00+09:00,6.2,�k��,11,�k,11.5,87.3,0,0,7,110
2023-05-08T04:24:00+09:00,6.2,�k��,11,�k,11.5,87.3,0,0,7,110
2023-05-08T04:25:00+09:00,6.2,�k��,11,�k,11.5,87.3,0,0,7,110
2023-05-08T04:26:00+09:00,6.1,�k��,13,�k,11.5,87.2,0,0,7,110
2023-05-08T04:27:00+09:00,6.4,�k��,13,�k,11.6,87.1,0,0,7,110
2023-05-08T04:28:00+09:00,6.5,�k�k��,13,�k,11.6,87,0,0,7,110
2023-05-08T04:29:00+09:00,6.3,�k�k��,13,�k,11.5,86.7,0,0,7,110
2023-05-08T04:30:00+09:00,6.3,�k�k��,13,�k,11.5,86.8,0,0,7,110
2023-05-08T04:31:00+09:00,6.2,�k�k��,13,�k,11.5,87,0,0,7,110
2023-05-08T04:32:00+09:00,6.2,�k�k��,13,�k,11.5,87.1,0,0,7,110
2023-05-08T04:33:00+09:00,6.1,�k�k��,13,�k,11.5,87.1,0,0,7,110
2023-05-08T04:34:00+09:00,6,�k�k��,13,�k,11.5,87,0,0,7,110
2023-05-08T04:35:00+09:00,6,�k�k��,13,�k,11.5,86.8,0,0,7,110
2023-05-08T04:36:00+09:00,6,�k��,11.8,�k��,11.6,86.6,0,0,7,110
2023-05-08T04:37:00+09:00,6,�k��,11.8,�k��,11.6,86.2,0,0,7,110
2023-05-08T04:38:00+09:00,6,�k��,11.8,�k��,11.6,85.9,0,0,7,110
2023-05-08T04:39:00+09:00,6,�k��,11.8,�k��,11.6,85.6,0,0,7,110
2023-05-08T04:40:00+09:00,6,�k��,11.8,�k��,11.6,85.4,0,0,7,110
2023-05-08T04:41:00+09:00,6.1,�k��,11.8,�k��,11.5,85.4,0,0,7,110
2023-05-08T04:42:00+09:00,6,�k��,11.8,�k��,11.5,85.5,0,0,7,110
2023-05-08T04:43:00+09:00,5.9,�k��,11.8,�k��,11.4,85.8,0,0,7,110
2023-05-08T04:44:00+09:00,5.9,�k��,11.8,�k�k��,11.4,86.2,0,0,7,110
2023-05-08T04:45:00+09:00,5.8,�k��,11.8,�k�k��,11.4,86.3,0,0,7,110
2023-05-08T04:46:00+09:00,5.8,�k��,11.8,�k�k��,11.4,86.4,0,0,7,110
2023-05-08T04:47:00+09:00,5.5,�k��,10.9,�k�k��,11.3,86.8,0,0,7,110
2023-05-08T04:48:00+09:00,5.3,�k��,9.1,�k�k��,11.3,87.2,0,0,7,110
2023-05-08T04:49:00+09:00,5.4,�k��,10.1,�k��,11.4,87.4,0,0,7,110
2023-05-08T04:50:00+09:00,5.4,�k��,10.1,�k��,11.5,87.2,0,0,7,110
2023-05-08T04:51:00+09:00,5.3,�k��,10.1,�k��,11.4,86.7,0,0,7,110
2023-05-08T04:52:00+09:00,5.5,�k��,10.1,�k��,11.4,86.6,0,0,7,110
2023-05-08T04:53:00+09:00,5.5,�k��,10.1,�k��,11.4,86.6,0,0,7,110
2023-05-08T04:54:00+09:00,5.8,�k��,10.5,�k��,11.4,86.5,0,0,7,110
2023-05-08T04:55:00+09:00,5.6,�k��,10.5,�k��,11.4,86.7,0,0,7,110
2023-05-08T04:56:00+09:00,5.6,�k��,10.5,�k��,11.4,86.9,0,0,7,110
2023-05-08T04:57:00+09:00,5.6,�k��,10.5,�k��,11.4,87,0,0,7,110
2023-05-08T04:58:00+09:00,5.4,�k��,10.5,�k��,11.4,86.9,0,0,7,110
2023-05-08T04:59:00+09:00,5.1,�k��,10.5,�k��,11.4,87,0,0,7,110
2023-05-08T05:00:00+09:00,5.1,�k��,10.5,�k��,11.4,87,0,0,7,110
2023-05-08T05:01:00+09:00,5.2,�k��,10.5,�k��,11.4,86.9,0,0,7,110
2023-05-08T05:02:00+09:00,5.3,�k��,10.5,�k��,11.4,87,0,0,7,110
2023-05-08T05:03:00+09:00,5.3,�k��,10.5,�k��,11.4,87,0,0,7,110
2023-05-08T05:04:00+09:00,5.1,�k��,9.5,�k�k��,11.4,86.8,0,0,7,110
2023-05-08T05:05:00+09:00,5.1,�k��,9.5,�k�k��,11.3,86.9,0,0,7,110
2023-05-08T05:06:00+09:00,5.1,�k��,10.4,�k�k��,11.4,87.1,0,0,7,110
2023-05-08T05:07:00+09:00,5.4,�k��,10.4,�k�k��,11.4,87.2,0,0,7,110
2023-05-08T05:08:00+09:00,5.8,�k��,10.4,�k�k��,11.5,87.2,0,0,7,110
2023-05-08T05:09:00+09:00,6,�k��,10.4,�k�k��,11.5,86.9,0,0,7,110
2023-05-08T05:10:00+09:00,6.1,�k��,10.4,�k�k��,11.5,86.6,0,0,7,110
2023-05-08T05:11:00+09:00,6.1,�k��,10.8,�k�k��,11.4,86.3,0,0,7,110
2023-05-08T05:12:00+09:00,6.2,�k��,10.8,�k�k��,11.5,86.3,0,0,7,110
2023-05-08T05:13:00+09:00,6.6,�k��,12.2,�k��,11.5,86.3,0,0,7,110
2023-05-08T05:14:00+09:00,6.7,�k��,12.2,�k��,11.5,86.2,0,0,7,110
2023-05-08T05:15:00+09:00,6.9,�k��,12.2,�k��,11.5,86.1,0,0,7,110
2023-05-08T05:16:00+09:00,7,�k��,12.2,�k��,11.5,86.2,0,0,7,110
2023-05-08T05:17:00+09:00,7,�k��,13.8,�k,11.5,86.3,0,0,7,110
2023-05-08T05:18:00+09:00,6.7,�k��,13.8,�k,11.5,86.3,0,0,7,110
2023-05-08T05:19:00+09:00,6.7,�k�k��,13.8,�k,11.4,86.6,0,0,7,110
2023-05-08T05:20:00+09:00,6.7,�k�k��,13.8,�k,11.4,86.9,0,0,7,110
2023-05-08T05:21:00+09:00,6.6,�k�k��,13.8,�k,11.4,87.1,0,0,7,110
2023-05-08T05:22:00+09:00,6.2,�k�k��,13.8,�k,11.5,87.2,0,0,7,110
2023-05-08T05:23:00+09:00,5.9,�k�k��,13.8,�k,11.4,87.1,0,0,7,110
2023-05-08T05:24:00+09:00,5.8,�k�k��,13.8,�k,11.4,87.2,0,0,7,110
2023-05-08T05:25:00+09:00,5.9,�k�k��,13.8,�k,11.3,87.3,0,0,7,110
2023-05-08T05:26:00+09:00,6.1,�k�k��,13.8,�k,11.4,87.5,0,0,7,110
2023-05-08T05:27:00+09:00,5.8,�k�k��,10.8,�k,11.4,87.6,0,0,7,110
2023-05-08T05:28:00+09:00,6,�k�k��,10.8,�k,11.4,87.6,0,0,7,110
2023-05-08T05:29:00+09:00,6,�k�k��,11.4,�k,11.4,87.4,0,0,7,110
2023-05-08T05:30:00+09:00,6.1,�k�k��,11.4,�k,11.4,87.3,0,0,7,110
2023-05-08T05:31:00+09:00,6.1,�k�k��,11.4,�k,11.4,87,0,0,7,110
2023-05-08T05:32:00+09:00,6.1,�k�k��,11.4,�k,11.3,87,0,0,7,110
2023-05-08T05:33:00+09:00,6,�k�k��,11.4,�k,11.3,87.2,0,0,7,110
2023-05-08T05:34:00+09:00,5.9,�k�k��,11.4,�k,11.3,87.7,0,0,7,110
2023-05-08T05:35:00+09:00,5.4,�k�k��,11.4,�k,11.4,87.8,0,0,7,110
2023-05-08T05:36:00+09:00,5.4,�k�k��,11.4,�k,11.4,87.5,0,0,7,110
2023-05-08T05:37:00+09:00,5.4,�k�k��,11.4,�k,11.4,86.9,0,0,7,110
2023-05-08T05:38:00+09:00,5.4,�k�k��,11.4,�k,11.3,86.4,0,0,7,110
2023-05-08T05:39:00+09:00,5,�k�k��,10.8,�k,11.3,86.4,0,0,7,110
2023-05-08T05:40:00+09:00,4.7,�k�k��,10.8,�k,11.3,86.5,0,0,7,110
2023-05-08T05:41:00+09:00,4.5,�k�k��,10.8,�k,11.3,86.8,0,0,7,110
2023-05-08T05:42:00+09:00,4.7,�k�k��,10.8,�k,11.3,87.1,0,0,7,110
2023-05-08T05:43:00+09:00,4.6,�k�k��,10.8,�k,11.2,87.3,0,0,7,110
2023-05-08T05:44:00+09:00,4.6,�k�k��,9.4,�k��,11.3,87.3,0,0,7,110
2023-05-08T05:45:00+09:00,5.1,�k�k��,9.7,�k��,11.3,87.2,0,0,7,110
2023-05-08T05:46:00+09:00,4.9,�k�k��,9.7,�k��,11.4,86.9,0,0,7,110
2023-05-08T05:47:00+09:00,4.9,�k�k��,9.7,�k��,11.3,86.4,0,0,7,110
2023-05-08T05:48:00+09:00,4.9,�k�k��,9.7,�k��,11.3,86.1,0,0,7,110
2023-05-08T05:49:00+09:00,5.2,�k�k��,9.7,�k��,11.3,86,0,0,7,110
2023-05-08T05:50:00+09:00,5.4,�k�k��,9.7,�k��,11.3,85.9,0,0,7,110
2023-05-08T05:51:00+09:00,5.4,�k�k��,9.7,�k��,11.3,85.9,0,0,7,110
2023-05-08T05:52:00+09:00,5.1,�k�k��,9.7,�k��,11.3,86.3,0,0,7,110
2023-05-08T05:53:00+09:00,5,�k�k��,9.7,�k��,11.2,86.6,0,0,7,110
2023-05-08T05:54:00+09:00,4.8,�k�k��,9.7,�k��,11.2,86.8,0,0,7,110
2023-05-08T05:55:00+09:00,4.6,�k�k��,9.3,�k,11.1,87.2,0,0,7,110
2023-05-08T05:56:00+09:00,4.7,�k�k��,11.2,�k��,11.2,87.5,0,0,7,110